Date String (YYYY-MM-DD hh:mm:ss) UTC,Instrument flags,Ambient pressure (hPa),Sample flow (lpm),Bypass flow (lpm),Sample temperature (°C),Ambient temperature (°C),ASC tube jacket temperature (°C),LED temperature (°C),Box temperature (°C),Sample RH (%),Span deviation,Mass concentration (μg/m³),Mass concentration (μg/m³),Mass concentration (μg/m³)
DateTimeUTC,F1_M11,P_M11,Q1_M11,Q2_M11,T1_M11,T2_M11,T3_M11,T4_M11,T5_M11,U1_M11,ZSPAN_M11,X0_M11,X2_M11,X1_M11
2023-05-16 09:00:00,,0835.2,5.00,0.00,27.9,25.9,00.0,36.6,29.5,27.2,0000.0,0008.90,0004.68,0004.09
2023-05-16 09:01:00,,0835.3,5.00,0.00,27.9,26.0,00.0,36.5,29.5,27.0,0000.0,0009.03,0004.64,0004.08
2023-05-16 09:02:00,,0835.3,5.01,0.00,27.9,26.1,00.0,36.5,29.5,26.8,0000.0,0008.96,0004.60,0004.05
2023-05-16 09:03:00,,0835.3,4.99,0.00,28.0,26.2,00.0,36.5,29.6,26.7,0000.0,0009.12,0004.57,0004.02
2023-05-16 09:04:00,,0835.3,5.00,0.00,28.0,26.3,00.0,36.5,29.6,26.7,0000.0,0009.04,0004.57,0004.01
2023-05-16 09:05:00,,0835.2,5.00,0.00,28.0,26.4,00.0,36.5,29.7,26.7,0000.0,0010.00,0004.61,0004.01
2023-05-16 09:06:00,,0835.2,5.00,0.00,28.0,26.5,00.0,36.5,29.7,26.7,0000.0,0009.97,0004.62,0004.01
2023-05-16 09:07:00,,0835.3,5.00,0.00,28.1,26.5,00.0,36.5,29.7,26.7,0000.0,0009.78,0004.58,0004.00
2023-05-16 09:08:00,,0835.3,5.00,0.00,28.1,26.5,00.0,36.5,29.7,26.7,0000.0,0009.82,0004.54,0003.99
2023-05-16 09:09:00,,0835.3,5.00,0.00,28.1,26.5,00.0,36.5,29.7,26.8,0000.0,0009.94,0004.49,0003.95
2023-05-16 09:10:00,,0835.3,5.00,0.00,28.1,26.5,00.0,36.5,29.7,26.8,0000.0,0010.06,0004.43,0003.91
2023-05-16 09:11:00,,0835.3,5.00,0.00,28.1,26.5,00.0,36.5,29.7,26.8,0000.0,0010.47,0004.46,0003.92
2023-05-16 09:12:00,,0835.3,5.00,0.00,28.1,26.4,00.0,36.5,29.6,26.7,0000.0,0010.75,0004.48,0003.93
2023-05-16 09:13:00,,0835.3,4.99,0.00,28.1,26.4,00.0,36.5,29.7,26.2,0000.0,0010.94,0004.52,0003.93
2023-05-16 09:14:00,,0835.3,5.01,0.00,28.1,26.4,00.0,36.5,29.7,26.3,0000.0,0010.83,0004.54,0003.93
2023-05-16 09:15:00,,0835.2,4.99,0.00,28.1,26.4,00.0,36.5,29.7,26.8,0000.0,0010.80,0004.57,0003.96
2023-05-16 09:16:00,,0835.2,5.01,0.00,28.1,26.4,00.0,36.5,29.7,26.6,0000.0,0009.89,0004.54,0003.97
2023-05-16 09:17:00,,0835.2,5.00,0.00,28.1,26.5,00.0,36.5,29.7,26.4,0000.0,0010.02,0004.51,0003.96
2023-05-16 09:18:00,,0835.2,5.01,0.00,28.1,26.5,00.0,36.5,29.7,26.1,0000.0,0009.88,0004.50,0003.95
2023-05-16 09:19:00,,0835.2,5.00,0.00,28.1,26.6,00.0,36.5,29.7,25.9,0000.0,0009.56,0004.46,0003.92
2023-05-16 09:20:00,,0835.2,4.99,0.00,28.1,26.6,00.0,36.5,29.8,25.8,0000.0,0009.18,0004.42,0003.87
2023-05-16 09:21:00,,0835.2,5.00,0.00,28.1,26.6,00.0,36.5,29.8,25.8,0000.0,0009.14,0004.39,0003.83
2023-05-16 09:22:00,,0835.2,5.01,0.00,28.2,26.6,00.0,36.5,29.8,25.9,0000.0,0008.36,0004.32,0003.80
2023-05-16 09:23:00,,0835.2,5.01,0.00,28.1,26.6,00.0,36.5,29.8,26.0,0000.0,0007.95,0004.27,0003.76
2023-05-16 09:24:00,,0835.1,5.00,0.00,28.1,26.5,00.0,36.5,29.7,26.0,0000.0,0007.85,0004.22,0003.75
2023-05-16 09:25:00,,0835.1,5.00,0.00,28.1,26.5,00.0,36.5,29.7,25.9,0000.0,0007.78,0004.18,0003.74
2023-05-16 09:26:00,,0835.1,4.99,0.00,28.1,26.4,00.0,36.5,29.7,25.8,0000.0,0008.04,0004.15,0003.72
2023-05-16 09:27:00,,0835.1,5.01,0.00,28.1,26.4,00.0,36.5,29.7,25.3,0000.0,0008.28,0004.05,0003.65
2023-05-16 09:28:00,,0835.2,5.01,0.00,28.1,26.4,00.0,36.5,29.7,25.7,0000.0,0008.10,0004.02,0003.62
2023-05-16 09:29:00,,0835.2,4.99,0.00,28.1,26.4,00.0,36.5,29.7,25.7,0000.0,0007.97,0004.02,0003.61
2023-05-16 09:30:00,,0835.1,5.01,0.00,28.1,26.5,00.0,36.5,29.7,25.2,0000.0,0007.92,0004.00,0003.60
2023-05-16 09:31:00,,0835.1,4.98,0.00,28.1,26.5,00.0,36.5,29.7,25.9,0000.0,0007.86,0004.02,0003.61
2023-05-16 09:32:00,,0835.1,5.01,0.00,28.1,26.5,00.0,36.5,29.7,25.9,0000.0,0007.88,0004.03,0003.62
2023-05-16 09:33:00,,0835.1,5.01,0.00,28.1,26.5,00.0,36.5,29.8,25.6,0000.0,0007.80,0004.00,0003.61
2023-05-16 09:34:00,,0835.1,5.01,0.00,28.1,26.6,00.0,36.5,29.8,25.6,0000.0,0007.83,0003.99,0003.59
2023-05-16 09:35:00,,0835.1,5.00,0.00,28.2,26.6,00.0,36.5,29.8,25.8,0000.0,0007.49,0003.99,0003.59
2023-05-16 09:36:00,,0835.1,5.00,0.00,28.2,26.7,00.0,36.5,29.8,25.8,0000.0,0007.56,0003.99,0003.60
2023-05-16 09:37:00,,0835.1,5.00,0.00,28.2,26.7,00.0,36.5,29.8,25.8,0000.0,0007.80,0003.99,0003.60
2023-05-16 09:38:00,,0835.2,5.00,0.00,28.2,26.7,00.0,36.5,29.8,25.9,0000.0,0007.47,0004.03,0003.62
2023-05-16 09:39:00,,0835.2,4.99,0.00,28.2,26.7,00.0,36.5,29.8,26.0,0000.0,0007.37,0004.01,0003.63
2023-05-16 09:40:00,,0835.2,5.00,0.00,28.2,26.7,00.0,36.5,29.8,26.3,0000.0,0007.40,0004.01,0003.64
2023-05-16 09:41:00,,0835.1,5.00,0.00,28.2,26.6,00.0,36.5,29.8,26.3,0000.0,0007.46,0004.06,0003.69
2023-05-16 09:42:00,,0835.1,5.00,0.00,28.2,26.6,00.0,36.5,29.8,26.4,0000.0,0007.53,0004.09,0003.70
2023-05-16 09:43:00,,0835.1,5.01,0.00,28.2,26.5,00.0,36.5,29.8,26.5,0000.0,0007.63,0004.13,0003.73
2023-05-16 09:44:00,,0835.1,5.00,0.00,28.1,26.5,00.0,36.5,29.7,26.4,0000.0,0007.69,0004.17,0003.76
2023-05-16 09:45:00,,0835.1,5.00,0.00,28.1,26.4,00.0,36.5,29.7,26.5,0000.0,0007.71,0004.21,0003.80
2023-05-16 09:46:00,,0835.3,5.00,0.00,28.1,26.4,00.0,36.5,29.7,26.2,0000.0,0007.77,0004.25,0003.84
2023-05-16 09:47:00,,0835.2,5.00,0.00,28.1,26.5,00.0,36.5,29.8,26.1,0000.0,0007.59,0004.27,0003.85
2023-05-16 09:48:00,,0835.2,4.99,0.00,28.1,26.5,00.0,36.5,29.8,26.1,0000.0,0007.06,0004.30,0003.88
2023-05-16 09:49:00,,0835.2,4.99,0.00,28.1,26.5,00.0,36.5,29.8,26.7,0000.0,0007.15,0004.40,0003.98
2023-05-16 09:50:00,,0835.2,5.00,0.00,28.1,26.5,00.0,36.5,29.8,26.8,0000.0,0007.45,0004.58,0004.13
2023-05-16 09:51:00,,0835.2,5.00,0.00,28.1,26.5,00.0,36.5,29.8,26.7,0000.0,0007.67,0004.69,0004.23
2023-05-16 09:52:00,,0835.2,5.01,0.00,28.1,26.5,00.0,36.5,29.7,26.7,0000.0,0008.17,0004.77,0004.32
2023-05-16 09:53:00,,0835.2,5.00,0.00,28.1,26.4,00.0,36.5,29.7,26.8,0000.0,0008.59,0004.83,0004.40
2023-05-16 09:54:00,,0835.2,5.00,0.00,28.1,26.4,00.0,36.5,29.7,26.9,0000.0,0008.87,0004.89,0004.48
2023-05-16 09:55:00,,0835.2,5.00,0.00,28.1,26.4,00.0,36.5,29.7,27.0,0000.0,0009.12,0005.02,0004.58
2023-05-16 09:56:00,,0835.2,5.00,0.00,28.1,26.4,00.0,36.5,29.7,26.9,0000.0,0009.20,0005.08,0004.64
2023-05-16 09:57:00,,0835.2,5.00,0.00,28.1,26.4,00.0,36.5,29.7,26.8,0000.0,0009.33,0005.12,0004.65
2023-05-16 09:58:00,,0835.2,5.00,0.00,28.1,26.4,00.0,36.5,29.7,26.6,0000.0,0009.66,0005.14,0004.66
2023-05-16 09:59:00,,0835.2,5.00,0.00,28.1,26.4,00.0,36.5,29.7,26.6,0000.0,0009.75,0005.15,0004.65
